Philadelphia, PA

11:22 PM EDT on August 24, 2019 (GMT -0400)
Philadelphia International

Weather History for KPHL - July, 2019

Change the Weather History Date:

Sunday, July 14, 2019

  Actual Average Record
Temperature  
Mean Temperature 83 °F 78 °F  
Max Temperature 91 °F 87 °F 101 °F (1954)
Min Temperature 74 °F 69 °F 52 °F (1940)
Degree Days  
Heating Degree Days 0 0  
Month to date heating degree days 0 0  
Since 1 June heating degree days 3 11  
Since 1 July heating degree days 0 0  
Cooling Degree Days 18 13  
Month to date cooling degree days 210 179  
Year to date cooling degree days 637 528  
Since 1 June cooling degree days 487 437  
Growing Degree Days 32 (Base 50)    
Moisture  
Dew Point 65 °F    
Average Humidity 61    
Maximum Humidity 82    
Minimum Humidity 40    
Precipitation  
Precipitation 0.00 in 0.15 in 2.89 in (1994)
Month to date precipitation 4.59 1.91  
Year to date precipitation 31.81 22.08  
Snow  
Snow 0.00 in 0.00 in 0.00 in (1870)
Month to date snowfall 0.0 0.0  
Since 1 June snowfall 0.0 0.0  
Since 1 July snowfall 0.0 0.0  
Snow Depth 0.00 in    
Sea Level Pressure  
Sea Level Pressure 29.96 in    
Wind  
Wind Speed 9 mph (West)    
Max Wind Speed 18 mph    
Max Gust Speed 24 mph    
Visibility 10 miles    
Events      
T = Trace of Precipitation, MM = Missing Value Source: NWS Daily Summary

Daily Weather History Graph

Daily Weather History Graph

Search for Another Location

Airport or City:

Astronomy

Jul. 14, 2019 Rise Set
Actual Time 5:44 AM EDT 8:29 PM EDT
Civil Twilight 5:12 AM EDT 9:00 PM EDT
Nautical Twilight 4:32 AM EDT 9:40 PM EDT
Astronomical Twilight 3:46 AM EDT 10:25 PM EDT
Moon 6:49 PM EDT (7/14) 3:43 AM EDT (7/14)
Length of Visible Light 15h 48m
Length of Day
14h 44m
Waxing Gibbous, 95% of the Moon is Illuminated
Jul 14
Waxing Gibbous
Jul 16
Full
Jul 24
Last Quarter
Jul 31
New
Aug 7
First Quarter

Hourly Weather History & Observations

Time (EDT) Temp. Heat Index Dew Point Humidity Pressure Visibility Wind Dir Wind Speed Gust Speed Precip Events Conditions
12:54 AM 78.1 °F - 69.1 °F 74% 29.93 in 10.0 mi SW 5.8 mph - N/A   Clear
1:54 AM 77.0 °F - 69.1 °F 76% 29.93 in 10.0 mi WSW 6.9 mph - N/A   Clear
2:54 AM 77.0 °F - 69.1 °F 76% 29.93 in 10.0 mi SW 8.1 mph - N/A   Clear
3:54 AM 75.9 °F - 69.1 °F 79% 29.94 in 10.0 mi WSW 5.8 mph - N/A   Clear
4:54 AM 75.0 °F - 69.1 °F 82% 29.95 in 10.0 mi SW 4.6 mph - N/A   Clear
5:54 AM 75.0 °F - 68.0 °F 79% 29.96 in 10.0 mi SW 4.6 mph - N/A   Partly Cloudy
6:54 AM 75.9 °F - 68.0 °F 76% 29.97 in 10.0 mi SW 5.8 mph - N/A   Partly Cloudy
7:54 AM 78.1 °F - 68.0 °F 71% 29.98 in 10.0 mi WSW 8.1 mph - N/A   Partly Cloudy
8:54 AM 81.0 °F 83.3 °F 66.9 °F 62% 29.99 in 10.0 mi West 9.2 mph - N/A   Scattered Clouds
9:54 AM 84.9 °F 86.6 °F 64.9 °F 51% 29.98 in 10.0 mi WNW 8.1 mph - N/A   Scattered Clouds
10:54 AM 86.0 °F 88.2 °F 66.0 °F 51% 29.98 in 10.0 mi NW 8.1 mph - N/A   Mostly Cloudy
11:54 AM 87.1 °F 89.2 °F 66.0 °F 49% 29.97 in 10.0 mi WNW 5.8 mph - N/A   Mostly Cloudy
12:54 PM 89.1 °F 91.3 °F 66.0 °F 46% 29.97 in 10.0 mi SSW 8.1 mph - N/A   Mostly Cloudy
1:54 PM 90.0 °F 92.4 °F 66.0 °F 45% 29.96 in 10.0 mi WSW 12.7 mph - N/A   Mostly Cloudy
2:54 PM 89.1 °F 91.0 °F 64.9 °F 45% 29.95 in 10.0 mi West 11.5 mph - N/A   Mostly Cloudy
3:54 PM 90.0 °F 91.3 °F 64.0 °F 42% 29.95 in 10.0 mi WNW 16.1 mph 24.2 mph N/A   Mostly Cloudy
4:54 PM 91.0 °F 92.6 °F 64.0 °F 41% 29.95 in 10.0 mi NW 11.5 mph - N/A   Mostly Cloudy
5:54 PM 89.1 °F 90.0 °F 63.0 °F 42% 29.95 in 10.0 mi NW 12.7 mph 21.9 mph N/A   Mostly Cloudy
6:54 PM 89.1 °F 89.3 °F 62.1 °F 40% 29.95 in 10.0 mi NW 13.8 mph - N/A   Partly Cloudy
7:54 PM 87.1 °F 86.7 °F 60.1 °F 40% 29.96 in 10.0 mi NW 10.4 mph - N/A   Partly Cloudy
8:54 PM 84.0 °F 84.4 °F 61.0 °F 46% 29.98 in 10.0 mi NNW 9.2 mph - N/A   Partly Cloudy
9:54 PM 82.0 °F 82.4 °F 60.1 °F 47% 29.99 in 10.0 mi NNW 6.9 mph - N/A   Partly Cloudy
10:54 PM 79.0 °F - 60.1 °F 52% 30.00 in 10.0 mi North 6.9 mph - N/A   Partly Cloudy
11:54 PM 78.1 °F - 60.1 °F 54% 30.02 in 10.0 mi NNW 6.9 mph - N/A   Partly Cloudy